STARLINK-35152

Last updated on Tue Oct 07 2025 00:02:05 GMT+0000 (Coordinated Universal Time)

1 65530U 25200L 25279.50003471 .00156426 00000+0 28295-2 0 9994 2 65530 97.6040 346.2111 0001444 108.2411 353.2140 15.49101656 5860

Satellite not in orbit

STARLINK-35152